Time,TemperatureF,DewpointF,PressureIn,WindDirection,WindDirectionDegrees,WindSpeedMPH,WindSpeedGustMPH,Humidity,HourlyPrecipIn,Conditions,Clouds,dailyrainin,SoftwareType,DateUTC
2013-02-23 00:00:00,53.1,28.1,29.98,North,0,4.6,4.6,38,0.00,CLR,,0.00,WeatherDisplay:10.37,2013-02-23 06:00:00,
2013-02-23 00:05:00,53.1,28.1,29.98,NNE,22,5.8,5.8,38,0.00,CLR,,0.00,WeatherDisplay:10.37,2013-02-23 06:05:00,
2013-02-23 00:11:00,52.9,27.9,29.98,North,0,4.6,4.6,38,0.00,CLR,,0.00,WeatherDisplay:10.37,2013-02-23 06:11:00,
2013-02-23 00:17:00,52.7,27.8,29.98,North,0,8.1,8.1,38,0.00,CLR,,0.00,WeatherDisplay:10.37,2013-02-23 06:17:00,
2013-02-23 00:22:00,52.7,27.8,29.98,NNW,338,6.9,6.9,38,0.00,CLR,,0.00,WeatherDisplay:10.37,2013-02-23 06:22:00,
2013-02-23 00:27:00,52.5,27.6,29.98,NNE,22,5.8,5.8,38,0.00,CLR,,0.00,WeatherDisplay:10.37,2013-02-23 06:27:00,
2013-02-23 00:32:00,52.5,27.6,29.98,NE,45,6.9,6.9,38,0.00,CLR,,0.00,WeatherDisplay:10.37,2013-02-23 06:32:00,
2013-02-23 00:37:00,52.3,27.5,29.98,NNE,22,5.8,5.8,38,0.00,CLR,,0.00,WeatherDisplay:10.37,2013-02-23 06:37:00,
2013-02-23 00:42:00,52.2,27.3,29.98,NNE,22,8.1,8.1,38,0.00,CLR,,0.00,WeatherDisplay:10.37,2013-02-23 06:42:00,
2013-02-23 00:47:00,52.0,27.1,29.98,North,0,8.1,8.1,38,0.00,CLR,,0.00,WeatherDisplay:10.37,2013-02-23 06:47:00,
2013-02-23 00:52:00,52.0,27.1,29.98,North,0,8.1,8.1,38,0.00,CLR,,0.00,WeatherDisplay:10.37,2013-02-23 06:52:00,
2013-02-23 00:57:00,51.8,27.0,30.01,North,0,4.6,4.6,38,0.00,CLR,,0.00,WeatherDisplay:10.37,2013-02-23 06:57:00,
2013-02-23 01:02:00,51.6,26.8,30.01,ENE,68,4.6,5.4,38,0.00,CLR,,0.00,WeatherDisplay:10.37,2013-02-23 07:02:00,
2013-02-23 01:07:00,51.6,26.8,30.01,ENE,68,5.8,6.7,38,0.00,CLR,,0.00,WeatherDisplay:10.37,2013-02-23 07:07:00,
2013-02-23 01:12:00,51.4,26.6,30.01,North,0,5.8,5.8,38,0.00,CLR,,0.00,WeatherDisplay:10.37,2013-02-23 07:12:00,
2013-02-23 01:17:00,51.3,26.5,30.01,ENE,68,5.8,5.8,38,0.00,CLR,,0.00,WeatherDisplay:10.37,2013-02-23 07:17:00,
2013-02-23 01:22:00,51.1,26.3,30.01,NE,45,4.6,4.6,38,0.00,CLR,,0.00,WeatherDisplay:10.37,2013-02-23 07:22:00,
2013-02-23 01:27:00,51.1,26.3,30.01,ENE,68,5.8,5.8,38,0.00,CLR,,0.00,WeatherDisplay:10.37,2013-02-23 07:27:00,
2013-02-23 01:32:00,50.9,26.2,30.01,NE,45,3.5,3.5,38,0.00,CLR,,0.00,WeatherDisplay:10.37,2013-02-23 07:32:00,
2013-02-23 01:37:00,50.7,26.0,30.01,ENE,68,4.6,4.6,38,0.00,CLR,,0.00,WeatherDisplay:10.37,2013-02-23 07:37:00,
2013-02-23 01:42:00,50.5,25.8,30.01,NNE,22,5.8,5.8,38,0.00,CLR,,0.00,WeatherDisplay:10.37,2013-02-23 07:42:00,
2013-02-23 01:47:00,50.5,25.8,30.01,NE,45,4.6,4.6,38,0.00,CLR,,0.00,WeatherDisplay:10.37,2013-02-23 07:47:00,
2013-02-23 01:52:00,50.4,25.7,30.01,NE,45,4.6,4.6,38,0.00,CLR,,0.00,WeatherDisplay:10.37,2013-02-23 07:52:00,
2013-02-23 01:57:00,50.4,25.7,30.01,North,0,5.8,5.8,38,0.00,CLR,,0.00,WeatherDisplay:10.37,2013-02-23 07:57:00,
2013-02-23 02:02:00,50.2,25.5,30.01,NNE,22,3.5,3.5,38,0.00,CLR,,0.00,WeatherDisplay:10.37,2013-02-23 08:02:00,
2013-02-23 02:07:00,50.2,25.5,30.01,NE,45,4.6,4.6,38,0.00,CLR,,0.00,WeatherDisplay:10.37,2013-02-23 08:07:00,
2013-02-23 02:13:00,50.0,25.4,30.01,North,0,5.8,5.8,38,0.00,CLR,,0.00,WeatherDisplay:10.37,2013-02-23 08:13:00,
2013-02-23 02:18:00,50.0,25.4,30.01,North,0,8.1,8.1,38,0.00,CLR,,0.00,WeatherDisplay:10.37,2013-02-23 08:18:00,
2013-02-23 02:23:00,50.0,25.4,30.01,North,0,4.6,4.6,38,0.00,CLR,,0.00,WeatherDisplay:10.37,2013-02-23 08:23:00,
2013-02-23 02:28:00,49.8,25.2,30.01,NNE,22,5.8,5.8,38,0.00,CLR,,0.00,WeatherDisplay:10.37,2013-02-23 08:28:00,
2013-02-23 02:33:00,49.8,25.2,30.01,North,0,5.8,5.8,38,0.00,CLR,,0.00,WeatherDisplay:10.37,2013-02-23 08:33:00,
2013-02-23 02:38:00,49.6,25.0,30.01,NNW,338,5.8,5.8,38,0.00,CLR,,0.00,WeatherDisplay:10.37,2013-02-23 08:38:00,
2013-02-23 02:43:00,49.6,25.0,30.01,NNE,22,5.8,5.8,38,0.00,CLR,,0.00,WeatherDisplay:10.37,2013-02-23 08:43:00,
2013-02-23 02:48:00,49.5,24.9,30.01,NNE,22,5.8,5.8,38,0.00,CLR,,0.00,WeatherDisplay:10.37,2013-02-23 08:48:00,
2013-02-23 02:53:00,49.5,24.9,30.01,NE,45,4.6,4.6,38,0.00,CLR,,0.00,WeatherDisplay:10.37,2013-02-23 08:53:00,
2013-02-23 02:58:00,49.3,24.7,30.01,NNE,22,4.6,4.6,38,0.00,CLR,,0.00,WeatherDisplay:10.37,2013-02-23 08:58:00,
2013-02-23 03:03:00,49.3,24.7,30.01,North,0,3.5,3.5,38,0.00,CLR,,0.00,WeatherDisplay:10.37,2013-02-23 09:03:00,
2013-02-23 03:08:00,49.1,24.6,30.01,NW,315,3.5,3.8,38,0.00,CLR,,0.00,WeatherDisplay:10.37,2013-02-23 09:08:00,
2013-02-23 03:13:00,49.1,24.6,29.98,North,0,5.8,5.8,38,0.00,CLR,,0.00,WeatherDisplay:10.37,2013-02-23 09:13:00,
2013-02-23 03:18:00,49.1,24.6,29.98,North,0,6.4,6.4,38,0.00,CLR,,0.00,WeatherDisplay:10.37,2013-02-23 09:18:00,
2013-02-23 03:23:00,48.9,24.4,29.98,NNW,338,5.8,5.8,38,0.00,CLR,,0.00,WeatherDisplay:10.37,2013-02-23 09:23:00,
2013-02-23 03:28:00,48.9,24.4,29.98,NNE,22,5.8,5.8,38,0.00,CLR,,0.00,WeatherDisplay:10.37,2013-02-23 09:28:00,
2013-02-23 03:33:00,48.9,24.4,29.98,North,0,5.8,6.2,38,0.00,CLR,,0.00,WeatherDisplay:10.37,2013-02-23 09:33:00,
2013-02-23 03:38:00,48.9,24.4,29.98,North,0,9.2,9.2,38,0.00,CLR,,0.00,WeatherDisplay:10.37,2013-02-23 09:38:00,
2013-02-23 03:43:00,48.7,24.2,29.98,North,0,5.8,5.8,38,0.00,CLR,,0.00,WeatherDisplay:10.37,2013-02-23 09:43:00,
2013-02-23 03:48:00,48.6,24.1,29.98,NE,45,6.9,6.9,38,0.00,CLR,,0.00,WeatherDisplay:10.37,2013-02-23 09:48:00,
2013-02-23 03:53:00,48.6,24.1,29.98,NNE,22,5.8,5.8,38,0.00,CLR,,0.00,WeatherDisplay:10.37,2013-02-23 09:53:00,
2013-02-23 03:58:00,48.4,23.9,29.98,NNE,22,4.6,4.6,38,0.00,CLR,,0.00,WeatherDisplay:10.37,2013-02-23 09:58:00,
2013-02-23 04:03:00,48.4,23.9,29.98,NNW,338,6.9,6.9,38,0.00,CLR,,0.00,WeatherDisplay:10.37,2013-02-23 10:03:00,
2013-02-23 04:08:00,48.2,23.7,29.98,North,0,5.9,5.9,38,0.00,CLR,,0.00,WeatherDisplay:10.37,2013-02-23 10:08:00,
2013-02-23 04:13:00,48.0,23.6,29.98,North,0,8.1,8.1,38,0.00,CLR,,0.00,WeatherDisplay:10.37,2013-02-23 10:13:00,
2013-02-23 04:18:00,48.0,23.6,29.98,WNW,292,5.8,6.0,38,0.00,CLR,,0.00,WeatherDisplay:10.37,2013-02-23 10:18:00,
2013-02-23 04:23:00,47.8,23.4,29.98,North,0,4.6,4.6,38,0.00,CLR,,0.00,WeatherDisplay:10.37,2013-02-23 10:23:00,
2013-02-23 04:28:00,47.8,23.4,29.98,NNE,22,5.8,5.8,38,0.00,CLR,,0.00,WeatherDisplay:10.37,2013-02-23 10:28:00,
2013-02-23 04:33:00,47.8,23.4,29.98,NNW,338,9.2,9.2,38,0.00,CLR,,0.00,WeatherDisplay:10.37,2013-02-23 10:33:00,
2013-02-23 04:38:00,47.8,23.4,29.98,North,0,5.8,5.8,38,0.00,CLR,,0.00,WeatherDisplay:10.37,2013-02-23 10:38:00,
2013-02-23 04:43:00,47.8,23.4,29.95,NNW,338,5.8,5.8,38,0.00,CLR,,0.00,WeatherDisplay:10.37,2013-02-23 10:43:00,
2013-02-23 04:48:00,47.7,24.5,29.95,East,90,5.8,5.8,40,0.00,CLR,,0.00,WeatherDisplay:10.37,2013-02-23 10:48:00,
2013-02-23 04:53:00,47.7,24.5,29.95,North,0,5.8,5.8,40,0.00,CLR,,0.00,WeatherDisplay:10.37,2013-02-23 10:53:00,
2013-02-23 04:58:00,47.7,24.5,29.98,North,0,5.8,5.8,40,0.00,CLR,,0.00,WeatherDisplay:10.37,2013-02-23 10:58:00,
2013-02-23 05:03:00,47.7,24.5,29.98,North,0,8.1,8.1,40,0.00,CLR,,0.00,WeatherDisplay:10.37,2013-02-23 11:03:00,
2013-02-23 05:08:00,47.5,24.3,29.98,North,0,5.8,5.8,40,0.00,CLR,,0.00,WeatherDisplay:10.37,2013-02-23 11:08:00,
2013-02-23 05:13:00,47.5,24.3,29.98,North,0,4.6,4.6,40,0.00,CLR,,0.00,WeatherDisplay:10.37,2013-02-23 11:13:00,
2013-02-23 05:18:00,47.3,24.2,29.98,WNW,292,4.6,4.6,40,0.00,CLR,,0.00,WeatherDisplay:10.37,2013-02-23 11:18:00,
2013-02-23 05:23:00,47.3,24.2,29.98,North,0,5.8,5.8,40,0.00,CLR,,0.00,WeatherDisplay:10.37,2013-02-23 11:23:00,
2013-02-23 05:28:00,47.1,24.0,29.98,NNW,338,5.8,5.8,40,0.00,CLR,,0.00,WeatherDisplay:10.37,2013-02-23 11:28:00,
2013-02-23 05:33:00,47.1,24.0,29.98,NW,315,3.5,4.3,40,0.00,CLR,,0.00,WeatherDisplay:10.37,2013-02-23 11:33:00,
2013-02-23 05:38:00,47.1,24.0,29.98,NNW,338,5.8,5.8,40,0.00,CLR,,0.00,WeatherDisplay:10.37,2013-02-23 11:38:00,
2013-02-23 05:43:00,46.9,23.8,29.98,North,0,8.1,8.1,40,0.00,CLR,,0.00,WeatherDisplay:10.37,2013-02-23 11:43:00,
2013-02-23 05:48:00,46.9,23.8,29.98,North,0,5.8,5.8,40,0.00,CLR,,0.00,WeatherDisplay:10.37,2013-02-23 11:48:00,
2013-02-23 05:53:00,46.9,23.8,29.98,NNW,338,8.1,8.1,40,0.00,CLR,,0.00,WeatherDisplay:10.37,2013-02-23 11:53:00,
2013-02-23 05:58:00,46.9,23.8,30.01,NE,45,8.1,8.1,40,0.00,CLR,,0.00,WeatherDisplay:10.37,2013-02-23 11:58:00,
2013-02-23 06:03:00,46.9,23.8,30.01,NW,315,7.8,7.8,40,0.00,CLR,,0.00,WeatherDisplay:10.37,2013-02-23 12:03:00,
2013-02-23 06:08:00,46.8,23.7,30.01,North,0,5.8,5.8,40,0.00,CLR,,0.00,WeatherDisplay:10.37,2013-02-23 12:08:00,
2013-02-23 06:13:00,46.8,23.7,30.01,NNE,22,5.8,5.8,40,0.00,CLR,,0.00,WeatherDisplay:10.37,2013-02-23 12:13:00,
2013-02-23 06:18:00,46.8,23.7,30.01,ENE,68,6.9,6.9,40,0.00,CLR,,0.00,WeatherDisplay:10.37,2013-02-23 12:18:00,
2013-02-23 06:23:00,46.8,23.7,30.01,North,0,5.8,5.8,40,0.00,CLR,,0.00,WeatherDisplay:10.37,2013-02-23 12:23:00,
2013-02-23 06:28:00,46.6,23.5,30.01,NE,45,4.6,4.6,40,0.00,CLR,,0.00,WeatherDisplay:10.37,2013-02-23 12:28:00,
2013-02-23 06:33:00,46.4,23.4,30.01,NNE,22,5.8,5.8,40,0.00,CLR,,0.00,WeatherDisplay:10.37,2013-02-23 12:33:00,
2013-02-23 06:38:00,46.4,23.4,30.01,NW,315,4.6,4.6,40,0.00,CLR,,0.00,WeatherDisplay:10.37,2013-02-23 12:38:00,
2013-02-23 06:43:00,46.4,23.4,30.01,North,0,6.9,6.9,40,0.00,CLR,,0.00,WeatherDisplay:10.37,2013-02-23 12:43:00,
2013-02-23 06:48:00,46.2,23.2,30.01,North,0,6.9,6.9,40,0.00,CLR,,0.00,WeatherDisplay:10.37,2013-02-23 12:48:00,
2013-02-23 06:53:00,46.2,23.2,30.01,NW,315,4.6,4.6,40,0.00,CLR,,0.00,WeatherDisplay:10.37,2013-02-23 12:53:00,
2013-02-23 06:58:00,46.2,23.2,30.04,NNW,338,3.5,3.8,40,0.00,CLR,,0.00,WeatherDisplay:10.37,2013-02-23 12:58:00,
2013-02-23 07:03:00,45.9,22.9,30.04,NW,315,4.6,4.6,40,0.00,CLR,,0.00,WeatherDisplay:10.37,2013-02-23 13:03:00,
2013-02-23 07:08:00,45.9,22.9,30.04,NNW,338,3.5,3.5,40,0.00,CLR,,0.00,WeatherDisplay:10.37,2013-02-23 13:08:00,
2013-02-23 07:13:00,45.7,22.7,30.04,North,0,5.8,5.8,40,0.00,CLR,,0.00,WeatherDisplay:10.37,2013-02-23 13:13:00,
2013-02-23 07:19:00,45.7,22.7,30.04,North,0,4.6,4.6,40,0.00,CLR,,0.00,WeatherDisplay:10.37,2013-02-23 13:19:00,
2013-02-23 07:24:00,45.7,22.7,30.04,NW,315,3.5,3.5,40,0.00,CLR,,0.00,WeatherDisplay:10.37,2013-02-23 13:24:00,
2013-02-23 07:29:00,45.9,22.9,30.01,NNE,22,3.5,3.5,40,0.00,CLR,,0.00,WeatherDisplay:10.37,2013-02-23 13:29:00,
2013-02-23 07:34:00,46.0,23.0,30.01,NNW,338,4.6,4.6,40,0.00,CLR,,0.00,WeatherDisplay:10.37,2013-02-23 13:34:00,
2013-02-23 07:39:00,46.2,23.2,30.01,NW,315,5.8,5.8,40,0.00,CLR,,0.00,WeatherDisplay:10.37,2013-02-23 13:39:00,
2013-02-23 07:44:00,46.4,23.4,30.04,NNE,22,9.2,9.2,40,0.00,CLR,,0.00,WeatherDisplay:10.37,2013-02-23 13:44:00,
2013-02-23 07:49:00,46.6,23.5,30.04,NW,315,9.2,9.2,40,0.00,CLR,,0.00,WeatherDisplay:10.37,2013-02-23 13:49:00,
2013-02-23 07:54:00,46.9,23.8,30.04,NW,315,6.9,6.9,40,0.00,CLR,,0.00,WeatherDisplay:10.37,2013-02-23 13:54:00,
2013-02-23 07:59:00,47.3,24.2,30.04,WNW,292,3.5,3.5,40,0.00,CLR,,0.00,WeatherDisplay:10.37,2013-02-23 13:59:00,
2013-02-23 08:04:00,47.3,24.2,30.04,WNW,292,5.8,5.8,40,0.00,CLR,,0.00,WeatherDisplay:10.37,2013-02-23 14:04:00,
2013-02-23 08:09:00,47.5,24.3,30.04,North,0,9.2,9.2,40,0.00,CLR,,0.00,WeatherDisplay:10.37,2013-02-23 14:09:00,
2013-02-23 08:14:00,47.5,24.3,30.04,WNW,292,8.1,8.1,40,0.00,CLR,,0.00,WeatherDisplay:10.37,2013-02-23 14:14:00,
2013-02-23 08:19:00,47.3,24.2,30.04,North,0,3.5,3.5,40,0.00,CLR,,0.00,WeatherDisplay:10.37,2013-02-23 14:19:00,
2013-02-23 08:24:00,47.5,24.3,30.04,NNW,338,4.6,4.6,40,0.00,CLR,,0.00,WeatherDisplay:10.37,2013-02-23 14:24:00,
2013-02-23 08:29:00,48.0,23.6,30.01,NW,315,4.6,4.6,38,0.00,CLR,,0.00,WeatherDisplay:10.37,2013-02-23 14:29:00,
2013-02-23 08:34:00,49.6,25.0,30.01,North,0,5.8,5.8,38,0.00,CLR,,0.00,WeatherDisplay:10.37,2013-02-23 14:34:00,
2013-02-23 08:39:00,50.7,26.0,30.01,North,0,4.6,4.6,38,0.00,CLR,,0.00,WeatherDisplay:10.37,2013-02-23 14:39:00,
2013-02-23 08:44:00,51.8,27.0,30.04,WNW,292,9.2,9.2,38,0.00,CLR,,0.00,WeatherDisplay:10.37,2013-02-23 14:44:00,
2013-02-23 08:49:00,52.3,27.5,30.04,North,0,6.9,6.9,38,0.00,CLR,,0.00,WeatherDisplay:10.37,2013-02-23 14:49:00,
2013-02-23 08:54:00,52.9,27.9,30.04,NW,315,5.8,5.8,38,0.00,CLR,,0.00,WeatherDisplay:10.37,2013-02-23 14:54:00,
2013-02-23 08:59:00,53.8,26.7,30.04,North,0,6.9,6.9,35,0.00,CLR,,0.00,WeatherDisplay:10.37,2013-02-23 14:59:00,
2013-02-23 09:04:00,54.9,27.7,30.04,North,0,6.9,6.9,35,0.00,CLR,,0.00,WeatherDisplay:10.37,2013-02-23 15:04:00,
2013-02-23 09:09:00,55.4,28.2,30.04,North,0,5.8,5.8,35,0.00,CLR,,0.00,WeatherDisplay:10.37,2013-02-23 15:09:00,
2013-02-23 09:14:00,55.9,28.7,30.07,NNE,22,5.8,5.8,35,0.00,CLR,,0.00,WeatherDisplay:10.37,2013-02-23 15:14:00,
2013-02-23 09:19:00,56.5,29.1,30.07,NNW,338,5.8,5.8,35,0.00,CLR,,0.00,WeatherDisplay:10.37,2013-02-23 15:19:00,
2013-02-23 09:24:00,56.3,29.0,30.07,North,0,5.8,5.8,35,0.00,CLR,,0.00,WeatherDisplay:10.37,2013-02-23 15:24:00,
2013-02-23 09:29:00,56.7,29.3,30.07,North,0,8.1,8.1,35,0.00,CLR,,0.00,WeatherDisplay:10.37,2013-02-23 15:29:00,
2013-02-23 09:34:00,57.2,28.3,30.07,WNW,292,8.1,8.1,33,0.00,CLR,,0.00,WeatherDisplay:10.37,2013-02-23 15:34:00,
2013-02-23 09:39:00,57.6,28.6,30.07,ENE,68,8.1,8.1,33,0.00,CLR,,0.00,WeatherDisplay:10.37,2013-02-23 15:39:00,
2013-02-23 09:44:00,57.7,28.8,30.07,NNW,338,6.9,6.9,33,0.00,CLR,,0.00,WeatherDisplay:10.37,2013-02-23 15:44:00,
2013-02-23 09:49:00,58.5,29.4,30.07,North,0,5.8,5.8,33,0.00,CLR,,0.00,WeatherDisplay:10.37,2013-02-23 15:49:00,
2013-02-23 09:54:00,58.5,29.4,30.07,NNE,22,5.9,5.9,33,0.00,CLR,,0.00,WeatherDisplay:10.37,2013-02-23 15:54:00,
2013-02-23 09:59:00,58.5,29.4,30.04,North,0,4.6,4.6,33,0.00,CLR,,0.00,WeatherDisplay:10.37,2013-02-23 15:59:00,
2013-02-23 10:04:00,58.5,29.4,30.04,NNE,22,5.8,5.8,33,0.00,CLR,,0.00,WeatherDisplay:10.37,2013-02-23 16:04:00,
2013-02-23 10:09:00,57.7,28.8,30.04,North,0,4.6,4.6,33,0.00,CLR,,0.00,WeatherDisplay:10.37,2013-02-23 16:09:00,
2013-02-23 10:15:00,57.0,28.2,30.07,WNW,292,3.5,3.5,33,0.00,CLR,,0.00,WeatherDisplay:10.37,2013-02-23 16:15:00,
2013-02-23 10:20:00,57.7,28.8,30.07,NNE,22,4.6,4.6,33,0.00,CLR,,0.00,WeatherDisplay:10.37,2013-02-23 16:20:00,
2013-02-23 10:25:00,57.7,28.8,30.07,NW,315,2.3,2.3,33,0.00,CLR,,0.00,WeatherDisplay:10.37,2013-02-23 16:25:00,
2013-02-23 10:30:00,58.5,29.4,30.04,NW,315,2.3,0.0,33,0.00,CLR,,0.00,WeatherDisplay:10.37,2013-02-23 16:30:00,
2013-02-23 10:35:00,59.4,30.2,30.04,North,0,5.8,5.8,33,0.00,CLR,,0.00,WeatherDisplay:10.37,2013-02-23 16:35:00,
2013-02-23 10:40:00,60.8,31.5,30.04,NNE,22,4.6,4.6,33,0.00,CLR,,0.00,WeatherDisplay:10.37,2013-02-23 16:40:00,
2013-02-23 10:45:00,60.8,31.5,30.04,ENE,68,1.2,1.2,33,0.00,CLR,,0.00,WeatherDisplay:10.37,2013-02-23 16:45:00,
2013-02-23 10:50:00,61.2,31.8,30.04,East,90,6.9,6.9,33,0.00,CLR,,0.00,WeatherDisplay:10.37,2013-02-23 16:50:00,
2013-02-23 10:55:00,62.2,31.2,30.04,NW,315,3.5,3.5,31,0.00,CLR,,0.00,WeatherDisplay:10.37,2013-02-23 16:55:00,
2013-02-23 11:00:00,61.7,32.3,30.04,NW,315,5.8,5.8,33,0.00,CLR,,0.00,WeatherDisplay:10.37,2013-02-23 17:00:00,
2013-02-23 11:05:00,61.7,32.3,30.04,NNE,22,3.5,3.8,33,0.00,CLR,,0.00,WeatherDisplay:10.37,2013-02-23 17:05:00,
2013-02-23 11:10:00,63.1,32.0,30.04,NW,315,4.6,4.6,31,0.00,CLR,,0.00,WeatherDisplay:10.37,2013-02-23 17:10:00,
2013-02-23 11:15:00,63.5,32.3,30.04,NW,315,4.6,4.6,31,0.00,CLR,,0.00,WeatherDisplay:10.37,2013-02-23 17:15:00,
2013-02-23 11:20:00,63.7,32.5,30.04,NNE,22,5.8,5.8,31,0.00,CLR,,0.00,WeatherDisplay:10.37,2013-02-23 17:20:00,
2013-02-23 11:25:00,63.1,32.0,30.04,NW,315,4.6,4.6,31,0.00,CLR,,0.00,WeatherDisplay:10.37,2013-02-23 17:25:00,
2013-02-23 11:30:00,63.1,32.0,30.04,West,270,3.5,3.5,31,0.00,CLR,,0.00,WeatherDisplay:10.37,2013-02-23 17:30:00,
2013-02-23 11:35:00,62.8,31.7,30.04,WNW,292,4.6,4.6,31,0.00,CLR,,0.00,WeatherDisplay:10.37,2013-02-23 17:35:00,
2013-02-23 11:40:00,63.1,32.0,30.04,NW,315,3.5,3.5,31,0.00,CLR,,0.00,WeatherDisplay:10.37,2013-02-23 17:40:00,
2013-02-23 11:45:00,64.9,33.6,30.04,East,90,5.8,5.8,31,0.00,CLR,,0.00,WeatherDisplay:10.37,2013-02-23 17:45:00,
2013-02-23 11:50:00,66.6,33.3,30.04,East,90,4.6,4.6,29,0.00,CLR,,0.00,WeatherDisplay:10.37,2013-02-23 17:50:00,
2013-02-23 11:55:00,66.4,33.1,30.04,ESE,112,3.5,3.5,29,0.00,CLR,,0.00,WeatherDisplay:10.37,2013-02-23 17:55:00,
2013-02-23 12:00:00,67.3,60.9,30.04,ESE,112,2.3,2.3,80,0.00,CLR,,0.00,WeatherDisplay:10.37,2013-02-23 18:00:00,
2013-02-23 12:05:00,67.8,34.4,30.04,NW,315,2.3,2.3,29,0.00,CLR,,0.00,WeatherDisplay:10.37,2013-02-23 18:05:00,
2013-02-23 12:11:00,66.9,33.6,30.04,SW,225,2.3,2.3,29,0.00,CLR,,0.00,WeatherDisplay:10.37,2013-02-23 18:11:00,
2013-02-23 12:16:00,66.7,33.4,30.04,SW,225,3.5,3.5,29,0.00,CLR,,0.00,WeatherDisplay:10.37,2013-02-23 18:16:00,
2013-02-23 12:21:00,67.3,33.9,30.04,NW,315,2.3,2.3,29,0.00,CLR,,0.00,WeatherDisplay:10.37,2013-02-23 18:21:00,
2013-02-23 12:26:00,67.8,34.4,30.01,SSW,202,3.5,3.5,29,0.00,CLR,,0.00,WeatherDisplay:10.37,2013-02-23 18:26:00,
2013-02-23 12:31:00,67.8,34.4,30.01,SSW,202,3.1,3.1,29,0.00,CLR,,0.00,WeatherDisplay:10.37,2013-02-23 18:31:00,
2013-02-23 12:36:00,67.5,34.1,30.01,WSW,248,1.2,0.0,29,0.00,CLR,,0.00,WeatherDisplay:10.37,2013-02-23 18:36:00,
2013-02-23 12:41:00,69.6,35.9,30.01,SW,225,4.6,4.6,29,0.00,CLR,,0.00,WeatherDisplay:10.37,2013-02-23 18:41:00,
2013-02-23 12:46:00,70.3,36.6,30.01,SE,135,4.6,4.6,29,0.00,CLR,,0.00,WeatherDisplay:10.37,2013-02-23 18:46:00,
2013-02-23 12:51:00,70.3,36.6,30.01,South,180,4.6,4.6,29,0.00,CLR,,0.00,WeatherDisplay:10.37,2013-02-23 18:51:00,
2013-02-23 12:56:00,69.6,35.9,30.01,SW,225,5.8,5.8,29,0.00,CLR,,0.00,WeatherDisplay:10.37,2013-02-23 18:56:00,
2013-02-23 13:01:00,68.5,35.0,30.01,West,270,3.5,3.5,29,0.00,CLR,,0.00,WeatherDisplay:10.37,2013-02-23 19:01:00,
2013-02-23 13:06:00,70.5,36.7,30.01,SW,225,5.8,5.8,29,0.00,CLR,,0.00,WeatherDisplay:10.37,2013-02-23 19:06:00,
2013-02-23 13:11:00,70.2,36.4,29.98,NNE,22,2.3,2.3,29,0.00,CLR,,0.00,WeatherDisplay:10.37,2013-02-23 19:11:00,
2013-02-23 13:16:00,69.3,35.6,29.98,SW,225,2.3,2.3,29,0.00,CLR,,0.00,WeatherDisplay:10.37,2013-02-23 19:16:00,
2013-02-23 13:21:00,70.3,36.6,29.98,SSW,202,3.5,3.6,29,0.00,CLR,,0.00,WeatherDisplay:10.37,2013-02-23 19:21:00,
2013-02-23 13:26:00,72.3,36.4,29.95,East,90,1.2,1.4,27,0.00,CLR,,0.00,WeatherDisplay:10.37,2013-02-23 19:26:00,
2013-02-23 13:31:00,71.4,35.7,29.95,SSW,202,4.9,4.9,27,0.00,CLR,,0.00,WeatherDisplay:10.37,2013-02-23 19:31:00,
2013-02-23 13:36:00,71.4,35.7,29.95,SSW,202,6.9,6.9,27,0.00,CLR,,0.00,WeatherDisplay:10.37,2013-02-23 19:36:00,
2013-02-23 13:41:00,71.1,37.2,29.98,SSW,202,2.3,2.3,29,0.00,CLR,,0.00,WeatherDisplay:10.37,2013-02-23 19:41:00,
2013-02-23 13:46:00,70.9,37.0,29.98,ENE,68,3.5,3.5,29,0.00,CLR,,0.00,WeatherDisplay:10.37,2013-02-23 19:46:00,
2013-02-23 13:51:00,70.5,36.7,29.98,WSW,248,3.3,3.3,29,0.00,CLR,,0.00,WeatherDisplay:10.37,2013-02-23 19:51:00,
2013-02-23 13:56:00,70.7,36.9,29.98,ESE,112,3.5,3.5,29,0.00,CLR,,0.00,WeatherDisplay:10.37,2013-02-23 19:56:00,
2013-02-23 14:01:00,70.7,36.9,29.98,South,180,2.3,2.3,29,0.00,CLR,,0.00,WeatherDisplay:10.37,2013-02-23 20:01:00,
2013-02-23 14:06:00,70.9,37.0,29.98,ENE,68,3.5,3.5,29,0.00,CLR,,0.00,WeatherDisplay:10.37,2013-02-23 20:06:00,
2013-02-23 14:11:00,71.2,35.5,29.95,NNE,22,3.5,3.5,27,0.00,CLR,,0.00,WeatherDisplay:10.37,2013-02-23 20:11:00,
2013-02-23 14:16:00,70.7,36.9,29.95,SW,225,4.6,4.6,29,0.00,CLR,,0.00,WeatherDisplay:10.37,2013-02-23 20:16:00,
2013-02-23 14:21:00,71.2,35.5,29.95,WSW,248,3.5,3.5,27,0.00,CLR,,0.00,WeatherDisplay:10.37,2013-02-23 20:21:00,
2013-02-23 14:26:00,71.6,35.8,29.89,SSW,202,4.6,4.6,27,0.00,CLR,,0.00,WeatherDisplay:10.37,2013-02-23 20:26:00,
2013-02-23 14:31:00,71.4,35.7,29.89,South,180,3.5,3.5,27,0.00,CLR,,0.00,WeatherDisplay:10.37,2013-02-23 20:31:00,
2013-02-23 14:36:00,71.6,35.8,29.89,SSW,202,2.3,2.3,27,0.00,CLR,,0.00,WeatherDisplay:10.37,2013-02-23 20:36:00,
2013-02-23 14:41:00,72.0,36.1,29.89,SSW,202,3.5,3.5,27,0.00,CLR,,0.00,WeatherDisplay:10.37,2013-02-23 20:41:00,
2013-02-23 14:46:00,71.8,36.0,29.89,SW,225,3.5,3.5,27,0.00,CLR,,0.00,WeatherDisplay:10.37,2013-02-23 20:46:00,
2013-02-23 14:51:00,72.3,36.4,29.89,SW,225,4.6,4.6,27,0.00,CLR,,0.00,WeatherDisplay:10.37,2013-02-23 20:51:00,
2013-02-23 14:56:00,72.3,36.4,29.92,SW,225,3.5,3.5,27,0.00,CLR,,0.00,WeatherDisplay:10.37,2013-02-23 20:56:00,
2013-02-23 15:01:00,73.6,37.5,29.92,SSW,202,4.6,4.6,27,0.00,CLR,,0.00,WeatherDisplay:10.37,2013-02-23 21:01:00,
2013-02-23 15:06:00,73.6,37.5,29.92,SW,225,4.6,4.6,27,0.00,CLR,,0.00,WeatherDisplay:10.37,2013-02-23 21:06:00,
2013-02-23 15:11:00,74.7,38.4,29.92,SSE,158,2.3,2.3,27,0.00,CLR,,0.00,WeatherDisplay:10.37,2013-02-23 21:11:00,
2013-02-23 15:16:00,75.4,63.7,29.92,WSW,248,3.5,3.5,67,0.00,CLR,,0.00,WeatherDisplay:10.37,2013-02-23 21:16:00,
2013-02-23 15:21:00,75.7,45.4,29.92,West,270,3.5,3.5,34,0.00,CLR,,0.00,WeatherDisplay:10.37,2013-02-23 21:21:00,
2013-02-23 15:26:00,74.8,44.6,29.92,NNW,338,2.3,2.3,34,0.00,CLR,,0.00,WeatherDisplay:10.37,2013-02-23 21:26:00,
2013-02-23 15:31:00,72.7,15.1,29.92,WSW,248,4.6,4.6,11,0.00,CLR,,0.00,WeatherDisplay:10.37,2013-02-23 21:31:00,
2013-02-23 15:36:00,72.7,15.1,29.92,SW,225,2.4,2.4,11,0.00,CLR,,0.00,WeatherDisplay:10.37,2013-02-23 21:36:00,
2013-02-23 15:41:00,74.3,16.3,29.89,SW,225,4.6,4.6,11,0.00,CLR,,0.00,WeatherDisplay:10.37,2013-02-23 21:41:00,
2013-02-23 15:46:00,73.8,15.9,29.89,SW,225,3.5,3.5,11,0.00,CLR,,0.00,WeatherDisplay:10.37,2013-02-23 21:46:00,
2013-02-23 15:51:00,73.0,15.4,29.89,SSW,202,3.5,3.5,11,0.00,CLR,,0.00,WeatherDisplay:10.37,2013-02-23 21:51:00,
2013-02-23 15:56:00,73.0,15.4,29.89,SE,135,3.5,3.5,11,0.00,CLR,,0.00,WeatherDisplay:10.37,2013-02-23 21:56:00,
2013-02-23 16:02:00,73.2,15.5,29.89,ESE,112,3.5,3.5,11,0.00,CLR,,0.00,WeatherDisplay:10.37,2013-02-23 22:02:00,
2013-02-23 16:07:00,72.9,15.2,29.89,East,90,2.4,2.4,11,0.00,CLR,,0.00,WeatherDisplay:10.37,2013-02-23 22:07:00,
2013-02-23 16:12:00,72.3,14.8,29.89,ESE,112,1.6,0.0,11,0.00,CLR,,0.00,WeatherDisplay:10.37,2013-02-23 22:12:00,
2013-02-23 16:17:00,72.5,14.9,29.89,ESE,112,2.3,0.0,11,0.00,CLR,,0.00,WeatherDisplay:10.37,2013-02-23 22:17:00,
2013-02-23 16:22:00,72.1,14.7,29.89,ESE,112,2.3,2.3,11,0.00,CLR,,0.00,WeatherDisplay:10.37,2013-02-23 22:22:00,
2013-02-23 16:27:00,72.3,14.8,29.89,ESE,112,1.6,1.6,11,0.00,CLR,,0.00,WeatherDisplay:10.37,2013-02-23 22:27:00,
2013-02-23 16:32:00,72.1,14.7,29.89,ESE,112,1.2,0.0,11,0.00,CLR,,0.00,WeatherDisplay:10.37,2013-02-23 22:32:00,
2013-02-23 16:37:00,72.1,14.7,29.89,ESE,112,3.5,3.5,11,0.00,CLR,,0.00,WeatherDisplay:10.37,2013-02-23 22:37:00,
2013-02-23 16:42:00,71.8,14.4,29.89,SSW,202,2.3,2.6,11,0.00,CLR,,0.00,WeatherDisplay:10.37,2013-02-23 22:42:00,
2013-02-23 16:47:00,71.8,14.4,29.89,South,180,1.2,0.0,11,0.00,CLR,,0.00,WeatherDisplay:10.37,2013-02-23 22:47:00,
2013-02-23 16:52:00,72.0,14.5,29.89,SE,135,2.3,2.3,11,0.00,CLR,,0.00,WeatherDisplay:10.37,2013-02-23 22:52:00,
2013-02-23 16:57:00,72.3,14.8,29.89,SE,135,3.5,3.5,11,0.00,CLR,,0.00,WeatherDisplay:10.37,2013-02-23 22:57:00,
2013-02-23 17:03:00,72.5,14.9,29.89,East,90,2.3,2.3,11,0.00,CLR,,0.00,WeatherDisplay:10.37,2013-02-23 23:03:00,
2013-02-23 17:08:00,72.5,14.9,29.89,East,90,2.3,2.4,11,0.00,CLR,,0.00,WeatherDisplay:10.37,2013-02-23 23:08:00,
2013-02-23 17:13:00,71.4,14.1,29.86,East,90,3.5,3.5,11,0.00,CLR,,0.00,WeatherDisplay:10.37,2013-02-23 23:13:00,
2013-02-23 17:18:00,70.9,15.7,29.86,ENE,68,3.5,3.5,12,0.00,CLR,,0.00,WeatherDisplay:10.37,2013-02-23 23:18:00,
2013-02-23 17:23:00,70.2,15.1,29.86,ENE,68,2.3,2.3,12,0.00,CLR,,0.00,WeatherDisplay:10.37,2013-02-23 23:23:00,
2013-02-23 17:28:00,70.0,15.0,29.89,East,90,2.3,2.3,12,0.00,CLR,,0.00,WeatherDisplay:10.37,2013-02-23 23:28:00,
2013-02-23 17:33:00,69.6,14.7,29.89,East,90,1.2,1.4,12,0.00,CLR,,0.00,WeatherDisplay:10.37,2013-02-23 23:33:00,
2013-02-23 17:38:00,69.3,14.4,29.89,ESE,112,0.0,0.0,12,0.00,CLR,,0.00,WeatherDisplay:10.37,2013-02-23 23:38:00,
2013-02-23 17:43:00,68.7,14.0,29.86,ESE,112,0.0,0.0,12,0.00,CLR,,0.00,WeatherDisplay:10.37,2013-02-23 23:43:00,
2013-02-23 17:48:00,68.5,13.9,29.86,ESE,112,2.3,2.3,12,0.00,CLR,,0.00,WeatherDisplay:10.37,2013-02-23 23:48:00,
2013-02-23 17:53:00,68.2,13.6,29.86,ESE,112,0.0,0.0,12,0.00,CLR,,0.00,WeatherDisplay:10.37,2013-02-23 23:53:00,
2013-02-23 17:58:00,67.5,13.0,29.86,ESE,112,0.0,0.0,12,0.00,CLR,,0.00,WeatherDisplay:10.37,2013-02-23 23:58:00,
2013-02-23 18:03:00,66.7,12.4,29.86,ESE,112,1.2,0.0,12,0.00,CLR,,0.00,WeatherDisplay:10.37,2013-02-24 00:03:00,
2013-02-23 18:08:00,66.2,12.0,29.86,ESE,112,0.0,0.0,12,0.00,CLR,,0.00,WeatherDisplay:10.37,2013-02-24 00:08:00,
2013-02-23 18:13:00,65.7,13.4,29.86,ESE,112,0.0,0.0,13,0.00,CLR,,0.00,WeatherDisplay:10.37,2013-02-24 00:13:00,
2013-02-23 18:18:00,65.3,13.1,29.86,ESE,112,2.3,2.3,13,0.00,CLR,,0.00,WeatherDisplay:10.37,2013-02-24 00:18:00,
2013-02-23 18:23:00,64.6,33.2,29.86,ESE,112,0.0,0.0,31,0.00,CLR,,0.00,WeatherDisplay:10.37,2013-02-24 00:23:00,
2013-02-23 18:28:00,63.9,32.6,29.89,ESE,112,1.2,1.2,31,0.00,CLR,,0.00,WeatherDisplay:10.37,2013-02-24 00:28:00,
2013-02-23 18:33:00,63.5,32.3,29.89,ESE,112,1.2,1.4,31,0.00,CLR,,0.00,WeatherDisplay:10.37,2013-02-24 00:33:00,
2013-02-23 18:38:00,62.8,31.7,29.89,SE,135,1.2,1.4,31,0.00,CLR,,0.00,WeatherDisplay:10.37,2013-02-24 00:38:00,
2013-02-23 18:43:00,62.4,31.4,29.89,SE,135,1.2,2.0,31,0.00,CLR,,0.00,WeatherDisplay:10.37,2013-02-24 00:43:00,
2013-02-23 18:48:00,62.1,32.6,29.89,SSW,202,2.3,2.3,33,0.00,CLR,,0.00,WeatherDisplay:10.37,2013-02-24 00:48:00,
2013-02-23 18:53:00,61.5,32.1,29.89,SE,135,1.2,1.2,33,0.00,CLR,,0.00,WeatherDisplay:10.37,2013-02-24 00:53:00,
2013-02-23 18:58:00,61.2,31.8,29.89,ESE,112,2.3,2.3,33,0.00,CLR,,0.00,WeatherDisplay:10.37,2013-02-24 00:58:00,
2013-02-23 19:03:00,60.8,31.5,29.89,ESE,112,0.0,0.0,33,0.00,CLR,,0.00,WeatherDisplay:10.37,2013-02-24 01:03:00,
2013-02-23 19:08:00,60.1,30.9,29.89,ESE,112,0.0,0.0,33,0.00,CLR,,0.00,WeatherDisplay:10.37,2013-02-24 01:08:00,
2013-02-23 19:13:00,59.5,30.4,29.89,ESE,112,0.0,0.0,33,0.00,CLR,,0.00,WeatherDisplay:10.37,2013-02-24 01:13:00,
2013-02-23 19:18:00,59.0,29.9,29.89,ESE,112,0.0,0.0,33,0.00,CLR,,0.00,WeatherDisplay:10.37,2013-02-24 01:18:00,
2013-02-23 19:23:00,58.3,29.3,29.89,ESE,112,0.0,0.0,33,0.00,CLR,,0.00,WeatherDisplay:10.37,2013-02-24 01:23:00,
2013-02-23 19:28:00,57.7,28.8,29.89,ESE,112,0.0,0.0,33,0.00,CLR,,0.00,WeatherDisplay:10.37,2013-02-24 01:28:00,
2013-02-23 19:33:00,57.2,28.3,29.89,ESE,112,0.0,0.0,33,0.00,CLR,,0.00,WeatherDisplay:10.37,2013-02-24 01:33:00,
2013-02-23 19:38:00,56.8,28.0,29.89,ESE,112,1.2,0.0,33,0.00,CLR,,0.00,WeatherDisplay:10.37,2013-02-24 01:38:00,
2013-02-23 19:43:00,56.7,29.3,29.89,ESE,112,0.0,0.0,35,0.00,CLR,,0.00,WeatherDisplay:10.37,2013-02-24 01:43:00,
2013-02-23 19:48:00,56.3,29.0,29.89,ESE,112,0.0,0.0,35,0.00,CLR,,0.00,WeatherDisplay:10.37,2013-02-24 01:48:00,
2013-02-23 19:53:00,55.8,28.5,29.89,ESE,112,0.0,0.0,35,0.00,CLR,,0.00,WeatherDisplay:10.37,2013-02-24 01:53:00,
2013-02-23 19:58:00,55.6,28.3,29.89,ESE,112,0.0,0.0,35,0.00,CLR,,0.00,WeatherDisplay:10.37,2013-02-24 01:58:00,
2013-02-23 20:03:00,55.2,28.0,29.89,ESE,112,0.0,0.0,35,0.00,CLR,,0.00,WeatherDisplay:10.37,2013-02-24 02:03:00,
2013-02-23 20:08:00,55.0,27.9,29.89,ESE,112,0.0,0.0,35,0.00,CLR,,0.00,WeatherDisplay:10.37,2013-02-24 02:08:00,
2013-02-23 20:13:00,54.5,27.4,29.92,ESE,112,0.0,0.0,35,0.00,CLR,,0.00,WeatherDisplay:10.37,2013-02-24 02:13:00,
2013-02-23 20:18:00,54.3,27.2,29.92,ESE,112,0.0,0.0,35,0.00,CLR,,0.00,WeatherDisplay:10.37,2013-02-24 02:18:00,
2013-02-23 20:29:00,54.0,26.9,29.89,ESE,112,0.0,0.0,35,0.00,CLR,,0.00,WeatherDisplay:10.37,2013-02-24 02:29:00,
2013-02-23 20:34:00,53.4,26.4,29.89,ESE,112,0.0,0.0,35,0.00,CLR,,0.00,WeatherDisplay:10.37,2013-02-24 02:34:00,
2013-02-23 20:39:00,53.2,26.3,29.89,ESE,112,0.0,0.0,35,0.00,CLR,,0.00,WeatherDisplay:10.37,2013-02-24 02:39:00,
2013-02-23 20:44:00,52.7,27.8,29.92,ESE,112,0.0,0.0,38,0.00,CLR,,0.00,WeatherDisplay:10.37,2013-02-24 02:44:00,
2013-02-23 20:49:00,52.5,27.6,29.92,ESE,112,0.0,0.0,38,0.00,CLR,,0.00,WeatherDisplay:10.37,2013-02-24 02:49:00,
2013-02-23 20:54:00,52.2,27.3,29.92,ESE,112,0.0,0.0,38,0.00,CLR,,0.00,WeatherDisplay:10.37,2013-02-24 02:54:00,
2013-02-23 20:59:00,51.8,27.0,29.92,ESE,112,0.0,0.0,38,0.00,CLR,,0.00,WeatherDisplay:10.37,2013-02-24 02:59:00,
2013-02-23 21:04:00,51.6,26.8,29.92,ESE,112,0.0,0.0,38,0.00,CLR,,0.00,WeatherDisplay:10.37,2013-02-24 03:04:00,
2013-02-23 21:09:00,51.8,27.0,29.92,ESE,112,0.0,0.0,38,0.00,CLR,,0.00,WeatherDisplay:10.37,2013-02-24 03:09:00,
2013-02-23 21:14:00,52.2,27.3,29.92,ESE,112,1.4,1.6,38,0.00,CLR,,0.00,WeatherDisplay:10.37,2013-02-24 03:14:00,
2013-02-23 21:43:00,54.5,27.4,29.89,ENE,68,2.3,2.3,35,0.00,CLR,,0.00,WeatherDisplay:10.37,2013-02-24 03:43:00,
2013-02-23 21:48:00,54.3,27.2,29.89,ENE,68,3.5,3.5,35,0.00,CLR,,0.00,WeatherDisplay:10.37,2013-02-24 03:48:00,
2013-02-23 21:53:00,54.1,27.1,29.89,NE,45,2.3,2.3,35,0.00,CLR,,0.00,WeatherDisplay:10.37,2013-02-24 03:53:00,
2013-02-23 21:58:00,53.8,26.7,29.92,ENE,68,2.3,2.3,35,0.00,CLR,,0.00,WeatherDisplay:10.37,2013-02-24 03:58:00,
2013-02-23 22:03:00,53.2,26.3,29.92,ENE,68,1.2,0.0,35,0.00,CLR,,0.00,WeatherDisplay:10.37,2013-02-24 04:03:00,
2013-02-23 22:08:00,53.1,28.1,29.92,ENE,68,2.3,2.3,38,0.00,CLR,,0.00,WeatherDisplay:10.37,2013-02-24 04:08:00,
2013-02-23 22:13:00,52.7,27.8,29.92,ENE,68,2.3,2.3,38,0.00,CLR,,0.00,WeatherDisplay:10.37,2013-02-24 04:13:00,
2013-02-23 22:18:00,52.7,27.8,29.92,ENE,68,3.3,3.3,38,0.00,CLR,,0.00,WeatherDisplay:10.37,2013-02-24 04:18:00,
2013-02-23 22:23:00,52.9,27.9,29.92,ENE,68,2.3,2.3,38,0.00,CLR,,0.00,WeatherDisplay:10.37,2013-02-24 04:23:00,
2013-02-23 22:28:00,52.9,27.9,29.95,ENE,68,3.5,3.5,38,0.00,CLR,,0.00,WeatherDisplay:10.37,2013-02-24 04:28:00,
2013-02-23 22:33:00,52.5,27.6,29.95,ENE,68,3.5,3.5,38,0.00,CLR,,0.00,WeatherDisplay:10.37,2013-02-24 04:33:00,
2013-02-23 22:38:00,52.3,27.5,29.95,ENE,68,3.5,3.5,38,0.00,CLR,,0.00,WeatherDisplay:10.37,2013-02-24 04:38:00,
2013-02-23 22:43:00,52.0,27.1,29.92,ENE,68,2.3,2.3,38,0.00,CLR,,0.00,WeatherDisplay:10.37,2013-02-24 04:43:00,
2013-02-23 22:48:00,51.6,26.8,29.92,ENE,68,2.3,2.3,38,0.00,CLR,,0.00,WeatherDisplay:10.37,2013-02-24 04:48:00,
2013-02-23 22:53:00,51.6,26.8,29.92,ENE,68,2.3,2.3,38,0.00,CLR,,0.00,WeatherDisplay:10.37,2013-02-24 04:53:00,
2013-02-23 22:58:00,51.4,26.6,29.92,ENE,68,2.3,2.3,38,0.00,CLR,,0.00,WeatherDisplay:10.37,2013-02-24 04:58:00,
2013-02-23 23:00:00,51.4,26.6,29.92,ESE,112,3.5,3.5,38,0.00,CLR,,0.00,WeatherDisplay:10.37,2013-02-24 05:00:00,
2013-02-23 23:05:00,51.6,26.8,29.92,ENE,68,3.5,3.5,38,0.00,CLR,,0.00,WeatherDisplay:10.37,2013-02-24 05:05:00,
2013-02-23 23:10:00,51.6,26.8,29.92,ENE,68,2.3,2.3,38,0.00,CLR,,0.00,WeatherDisplay:10.37,2013-02-24 05:10:00,
2013-02-23 23:15:00,51.3,26.5,29.92,ENE,68,2.3,2.3,38,0.00,CLR,,0.00,WeatherDisplay:10.37,2013-02-24 05:15:00,
2013-02-23 23:20:00,50.9,26.2,29.92,NE,45,2.3,2.3,38,0.00,CLR,,0.00,WeatherDisplay:10.37,2013-02-24 05:20:00,
2013-02-23 23:25:00,50.5,25.8,29.92,ENE,68,2.3,2.4,38,0.00,CLR,,0.00,WeatherDisplay:10.37,2013-02-24 05:25:00,
2013-02-23 23:30:00,50.5,25.8,29.92,NE,45,1.2,1.2,38,0.00,CLR,,0.00,WeatherDisplay:10.37,2013-02-24 05:30:00,
2013-02-23 23:35:00,50.7,26.0,29.92,ENE,68,3.5,3.5,38,0.00,CLR,,0.00,WeatherDisplay:10.37,2013-02-24 05:35:00,
2013-02-23 23:40:00,50.5,25.8,29.92,ENE,68,1.2,1.2,38,0.00,CLR,,0.00,WeatherDisplay:10.37,2013-02-24 05:40:00,